Location: Chippewa Lake
(41.0698°N, 81.9010°W)
Time: 01:06:37
(UTC+00:00)

CBERS-1 - Pass Details

Date: 09 May 2021
Orbit: 770 x 776 km, 98.7° (Epoch: 24 June)

Event Time Altitude Azimuth Distance (km) Brightness Sun altitude
Rises 07:59:58 0° 13° (NNE) 3,252 8.3 -21.2°
Reaches altitude 10° 08:02:17 10° 14° (NNE) 2,321 7.4 -20.9°
Maximum altitude 08:07:25 88° 103° (ESE) 777 3.9 -20.3°
Enters shadow 08:09:32 37° 192° (SSW) 1,193 4.5 -20.0°
